| time (UTC) | temp F | wind direction | speed knots | gust knots | rain 1hr in | rain 24hr in | rain mn in | humidity % | barometer mb |
| 20260906021508 | 71 | 360 | 3.5 | 5.2 | 0.00 | 0.00 | 0.00 | 93 | 1014.3 |
| 20260906020010 | 71 | 360 | 2.6 | 4.3 | 0.00 | 0.00 | 0.00 | 93 | 1014.2 |
| 20260906014507 | 72 | 360 | 1.7 | 3.5 | 0.00 | 0.00 | 0.00 | 92 | 1014.2 |
| 20260906013003 | 72 | 360 | 1.7 | 3.5 | 0.00 | 0.00 | 0.00 | 92 | 1014.1 |
| 20260906011608 | 73 | 360 | 1.7 | 4.3 | 0.00 | 0.00 | 0.00 | 91 | 1014.0 |
| 20260906010059 | 73 | 360 | 1.7 | 3.5 | 0.00 | 0.00 | 0.00 | 91 | 1014.0 |
| 20260906004604 | 74 | 360 | 1.7 | 3.5 | 0.00 | 0.00 | 0.00 | 90 | 1013.8 |
| 20260906003102 | 75 | 360 | 0.9 | 3.5 | 0.00 | 0.00 | 0.00 | 89 | 1013.6 |
| 20260906001555 | 76 | 360 | 0.9 | 3.5 | 0.00 | 0.00 | 0.00 | 87 | 1013.5 |
| 20260906000058 | 77 | 360 | 2.6 | 4.3 | 0.00 | 0.00 | 0.00 | 86 | 1013.4 |
| 20260905234552 | 78 | 360 | 3.5 | 7.0 | 0.00 | 0.00 | 0.00 | 85 | 1013.4 |
| 20260905233052 | 79 | 360 | 2.6 | 5.2 | 0.00 | 0.00 | 0.00 | 84 | 1013.2 |
| 20260905231553 | 80 | 360 | 2.6 | 5.2 | 0.00 | 0.00 | 0.00 | 83 | 1013.0 |
| 20260905230054 | 81 | 360 | 2.6 | 5.2 | 0.00 | 0.00 | 0.00 | 83 | 1012.9 |
| 20260905224553 | 82 | 360 | 2.6 | 5.2 | 0.00 | 0.00 | 0.00 | 82 | 1013.0 |
| 20260905223050 | 82 | 360 | 3.5 | 8.7 | 0.00 | 0.00 | 0.00 | 80 | 1012.8 |
| 20260905221552 | 83 | 53 | 3.5 | 8.7 | 0.00 | 0.00 | 0.00 | 79 | 1012.7 |
| 20260905220049 | 84 | 40 | 4.3 | 9.6 | 0.00 | 0.00 | 0.00 | 79 | 1012.5 |
| 20260905214548 | 85 | 52 | 4.3 | 8.7 | 0.00 | 0.00 | 0.00 | 77 | 1012.6 |
| 20260905213048 | 86 | 40 | 3.5 | 7.8 | 0.00 | 0.00 | 0.00 | 77 | 1012.3 |
| 20260905211552 | 88 | 42 | 5.2 | 8.7 | 0.00 | 0.00 | 0.00 | 74 | 1012.2 |
| 20260905210050 | 89 | 53 | 4.3 | 7.8 | 0.00 | 0.00 | 0.00 | 74 | 1012.2 |
| 20260905204547 | 89 | 31 | 6.1 | 11.3 | 0.00 | 0.00 | 0.00 | 73 | 1012.2 |
| 20260905203046 | 88 | 17 | 3.5 | 11.3 | 0.00 | 0.00 | 0.00 | 74 | 1012.3 |
| 20260905201545 | 89 | 11 | 3.5 | 9.6 | 0.00 | 0.00 | 0.00 | 75 | 1012.4 |
| 20260905200044 | 89 | 11 | 2.6 | 7.8 | 0.00 | 0.00 | 0.00 | 73 | 1012.3 |
| 20260905194543 | 89 | 322 | 2.6 | 7.8 | 0.00 | 0.00 | 0.00 | 74 | 1012.3 |
| 20260905193043 | 90 | 12 | 2.6 | 7.0 | 0.00 | 0.00 | 0.00 | 73 | 1012.4 |
| 20260905191542 | 90 | 26 | 2.6 | 7.8 | 0.00 | 0.00 | 0.00 | 74 | 1012.3 |
| 20260905190041 | 89 | 31 | 1.7 | 7.8 | 0.00 | 0.00 | 0.00 | 77 | 1012.4 |
| 20260905184557 | 89 | 28 | 3.5 | 7.8 | 0.00 | 0.00 | 0.00 | 76 | 1012.6 |
| 20260905183047 | 89 | 21 | 1.7 | 5.2 | 0.00 | 0.00 | 0.00 | 78 | 1012.7 |
| 20260905181547 | 89 | 34 | 3.5 | 8.7 | 0.00 | 0.00 | 0.00 | 77 | 1012.8 |
| 20260905180043 | 89 | 322 | 1.7 | 7.8 | 0.00 | 0.00 | 0.00 | 77 | 1012.8 |
| 20260905174538 | 89 | 31 | 1.7 | 8.7 | 0.00 | 0.00 | 0.00 | 76 | 1012.7 |
| 20260905173038 | 90 | 30 | 2.6 | 7.0 | 0.00 | 0.00 | 0.00 | 75 | 1012.8 |
| 20260905171540 | 90 | 28 | 1.7 | 7.0 | 0.00 | 0.00 | 0.00 | 75 | 1012.8 |
| 20260905170035 | 89 | 25 | 3.5 | 8.7 | 0.00 | 0.00 | 0.00 | 76 | 1013.0 |
| 20260905164534 | 89 | 360 | 3.5 | 10.4 | 0.00 | 0.00 | 0.00 | 77 | 1013.1 |
| 20260905163030 | 88 | 360 | 2.6 | 7.0 | 0.00 | 0.00 | 0.00 | 76 | 1013.1 |
| 20260905161529 | 87 | 360 | 2.6 | 7.0 | 0.00 | 0.00 | 0.00 | 78 | 1013.0 |
| 20260905160028 | 87 | 360 | 1.7 | 7.0 | 0.00 | 0.00 | 0.00 | 81 | 1013.0 |
| 20260905154523 | 86 | 34 | 1.7 | 5.2 | 0.00 | 0.00 | 0.00 | 83 | 1013.1 |
| 20260905153021 | 86 | 36 | 1.7 | 5.2 | 0.00 | 0.00 | 0.00 | 83 | 1013.0 |
| 20260905151523 | 86 | 23 | 1.7 | 5.2 | 0.00 | 0.00 | 0.00 | 83 | 1013.0 |
| 20260905150017 | 85 | 26 | 2.6 | 5.2 | 0.00 | 0.00 | 0.00 | 83 | 1013.0 |
| 20260905144513 | 84 | 360 | 1.7 | 3.5 | 0.00 | 0.00 | 0.00 | 83 | 1012.8 |
| 20260905143010 | 83 | 360 | 0.9 | 3.5 | 0.00 | 0.00 | 0.00 | 86 | 1012.8 |
| 20260905141507 | 82 | 360 | 1.7 | 3.5 | 0.00 | 0.00 | 0.00 | 86 | 1012.5 |
| 20260905140005 | 81 | 360 | 0.9 | 2.6 | 0.00 | 0.00 | 0.00 | 88 | 1012.6 |
| 20260905134600 | 80 | 360 | 0.9 | 3.5 | 0.00 | 0.00 | 0.00 | 90 | 1013.0 |
| 20260905133056 | 79 | 360 | 0.0 | 1.7 | 0.00 | 0.00 | 0.00 | 91 | 1013.0 |
| 20260905131553 | 78 | 360 | 1.7 | 3.5 | 0.00 | 0.00 | 0.00 | 93 | 1012.8 |
| 20260905130052 | 77 | 360 | 1.7 | 3.5 | 0.00 | 0.00 | 0.00 | 94 | 1012.6 |
| 20260905124551 | 76 | 360 | 0.9 | 3.5 | 0.00 | 0.00 | 0.00 | 95 | 1012.5 |
| 20260905123056 | 76 | 360 | 0.0 | 1.7 | 0.00 | 0.00 | 0.00 | 95 | 1012.5 |
| 20260905121550 | 75 | 360 | 0.0 | 2.6 | 0.00 | 0.00 | 0.00 | 96 | 1012.4 |
| 20260905120050 | 74 | 360 | 0.0 | 3.5 | 0.00 | 0.00 | 0.00 | 96 | 1012.1 |
| 20260905114549 | 74 | 360 | 1.7 | 3.5 | 0.00 | 0.00 | 0.00 | 96 | 1011.9 |
| 20260905113051 | 74 | 360 | 0.9 | 3.5 | 0.00 | 0.00 | 0.00 | 96 | 1011.9 |
| 20260905111634 | 74 | 360 | 1.7 | 2.6 | 0.00 | 0.00 | 0.00 | 95 | 1011.8 |
| 20260905110045 | 74 | 360 | 1.7 | 3.5 | 0.00 | 0.00 | 0.00 | 95 | 1011.7 |
| 20260905104544 | 74 | 360 | 0.0 | 2.6 | 0.00 | 0.00 | 0.00 | 95 | 1011.7 |
| 20260905103043 | 74 | 360 | 1.7 | 3.5 | 0.00 | 0.00 | 0.00 | 95 | 1011.8 |
| 20260905101550 | 74 | 360 | 1.7 | 2.6 | 0.00 | 0.00 | 0.00 | 95 | 1011.8 |
| 20260905100047 | 75 | 360 | 1.7 | 3.5 | 0.00 | 0.00 | 0.00 | 94 | 1012.0 |
| 20260905094539 | 75 | 360 | 0.9 | 2.6 | 0.00 | 0.00 | 0.00 | 94 | 1011.9 |
| 20260905093038 | 75 | 360 | 0.0 | 2.6 | 0.00 | 0.00 | 0.00 | 94 | 1011.8 |
| 20260905091538 | 75 | 360 | 0.9 | 2.6 | 0.00 | 0.00 | 0.00 | 94 | 1011.8 |
| 20260905090040 | 76 | 360 | 0.0 | 1.7 | 0.00 | 0.00 | 0.00 | 94 | 1011.8 |
| 20260905084542 | 75 | 360 | 0.0 | 0.0 | 0.00 | 0.00 | 0.00 | 95 | 1011.9 |
| 20260905083035 | 75 | 360 | 0.0 | 0.0 | 0.00 | 0.00 | 0.00 | 95 | 1012.0 |
| 20260905081535 | 75 | 360 | 0.0 | 0.0 | 0.00 | 0.00 | 0.00 | 95 | 1011.9 |
| 20260905080040 | 76 | 360 | 0.0 | 0.0 | 0.00 | 0.00 | 0.00 | 95 | 1011.9 |
| 20260905074538 | 76 | 360 | 0.0 | 0.9 | 0.00 | 0.00 | 0.00 | 95 | 1011.8 |
| 20260905073031 | 76 | 360 | 0.0 | 1.7 | 0.00 | 0.00 | 0.00 | 94 | 1012.0 |
| 20260905071534 | 76 | 360 | 0.0 | 1.7 | 0.00 | 0.00 | 0.00 | 95 | 1012.0 |
| 20260905070030 | 76 | 360 | 0.0 | 3.5 | 0.00 | 0.00 | 0.00 | 95 | 1012.1 |
| 20260905064529 | 76 | 360 | 1.7 | 3.5 | 0.00 | 0.00 | 0.00 | 95 | 1012.0 |
| 20260905063028 | 76 | 360 | 0.9 | 2.6 | 0.00 | 0.00 | 0.00 | 95 | 1012.2 |
| 20260905061531 | 76 | 360 | 1.7 | 2.6 | 0.00 | 0.00 | 0.00 | 94 | 1012.4 |
| 20260905060029 | 76 | 360 | 0.0 | 0.0 | 0.00 | 0.00 | 0.00 | 93 | 1012.4 |
| 20260905054522 | 77 | 360 | 0.0 | 0.0 | 0.00 | 0.00 | 0.00 | 93 | 1012.6 |
| 20260905053021 | 77 | 360 | 0.0 | 0.0 | 0.00 | 0.00 | 0.00 | 93 | 1012.6 |
| 20260905051524 | 77 | 360 | 0.0 | 1.7 | 0.00 | 0.00 | 0.00 | 93 | 1012.7 |
| 20260905050017 | 77 | 360 | 0.0 | 0.9 | 0.00 | 0.00 | 0.00 | 92 | 1012.6 |
| 20260905044515 | 77 | 360 | 0.0 | 0.0 | 0.00 | 0.00 | 0.00 | 92 | 1012.7 |
| 20260905043015 | 78 | 360 | 0.0 | 0.0 | 0.00 | 0.00 | 0.00 | 91 | 1012.7 |
| 20260905041515 | 78 | 360 | 0.0 | 0.0 | 0.00 | 0.00 | 0.00 | 91 | 1012.8 |
| 20260905040015 | 79 | 360 | 0.0 | 0.0 | 0.00 | 0.00 | 0.00 | 91 | 1012.6 |
| 20260905034515 | 79 | 360 | 0.0 | 1.7 | 0.00 | 0.00 | 0.00 | 91 | 1012.8 |
| 20260905033028 | 79 | 360 | 0.0 | 1.7 | 0.00 | 0.00 | 0.00 | 91 | 1012.9 |
| 20260905031515 | 79 | 360 | 0.0 | 0.0 | 0.00 | 0.00 | 0.00 | 91 | 1012.8 |
| 20260905030015 | 79 | 360 | 0.0 | 0.0 | 0.00 | 0.00 | 0.00 | 91 | 1012.8 |
| 20260905024512 | 79 | 360 | 0.0 | 1.7 | 0.00 | 0.00 | 0.00 | 91 | 1012.6 |
| 20260905023011 | 80 | 360 | 0.0 | 1.7 | 0.00 | 0.00 | 0.00 | 91 | 1012.3 |